Temperature
16 16 16 15 15 15 15 15 15 15 15 15 15 15 15 15 15 15 15 15 15 15 15 15 15 15 15 15 15 15 15 15 15 15 15 15 15 15 15 15 14 14 14
16 16 16 15 15 15 15 15 15 15 15 15 15 15 14 14 15 15 15 15 15 15 15 15 15 14 14 14 14 14 15 14 14 14 14 14 14 14 14 14 14 14 14
16 16 15 15 15 15 15 15 15 15 15 15 15 14 14 14 14 14 14 14 14 15 15 15 14 14 14 14 14 14 14 14 14 14 14 14 14 14 14 14 14 14 14
16 15 15 15 15 15 15 15 15 15 14 14 14 14 14 14 14 14 14 14 14 14 14 14 14 14 14 14 14 14 14 14 14 14 14 14 14 14 14 14 14 14 14
15 15 15 15 15 15 15 15 14 14 14 14 14 14 14 14 14 14 14 14 14 14 14 14 14 14 14 14 14 14 14 14 14 14 14 14 14 14 14 14 14 14 14
15 15 15 15 15 15 14 14 14 14 14 14 14 14 14 14 14 14 13 14 13 13 13 14 14 14 14 14 14 13 13 13 13 13 13 13 13 13 13 13 13 13 13
15 15 15 14 14 14 14 14 14 14 14 14 14 14 14 14 14 13 13 13 13 13 13 13 13 13 13 13 13 13 13 13 13 13 13 13 13 13 13 13 13 13 13
15 15 14 14 14 14 14 14 14 14 14 14 14 14 13 13 13 13 13 13 13 13 13 13 13 13 13 13 13 13 13 13 13 13 13 12 12 12 13 13 12 12 13
15 14 14 14 14 14 14 14 14 14 14 14 14 14 14 13 13 13 13 13 13 12 12 12 13 13 13 13 13 13 13 13 13 12 12 12 12 12 12 12 12 12 12
15 14 14 14 14 14 14 14 14 14 14 14 14 14 14 14 13 13 12 12 12 12 12 12 12 12 12 12 12 12 12 12 12 12 12 12 12 12 12 12 12 12 12
14 14 14 14 14 14 14 14 14 14 14 14 14 14 14 14 14 13 13 12 12 12 12 12 12 12 12 12 12 12 12 12 12 12 12 12 12 12 11 11 11 11 11
15 14 14 14 14 14 14 14 14 14 14 14 14 13 13 13 13 13 13 12 12 12 12 12 12 12 12 12 12 12 12 12 12 12 12 12 11 11 11 11 11 11 11
15 14 14 14 14 14 14 14 14 14 14 14 14 13 13 13 13 13 13 13 12 12 12 12 12 12 12 12 12 12 12 12 12 12 11 11 11 11 11 11 11 11 11
15 15 14 14 14 14 14 14 14 14 14 14 14 13 13 13 13 13 13 13 12 12 12 11 11 12 12 12 12 12 11 11 11 11 11 11 11 11 11 11 11 11 11
15 14 14 14 14 14 14 14 14 14 14 14 14 13 13 13 13 13 13 13 13 12 12 11 11 11 11 11 11 11 11 11 11 11 11 11 11 11 11 11 11 11 11
15 15 14 14 14 14 14 14 14 14 14 14 13 13 13 13 13 13 13 13 12 12 12 12 11 11 11 11 11 11 11 11 11 11 11 11 11 11 11 10 10 10 10
15 15 14 14 14 14 14 14 14 14 14 13 13 13 13 13 13 13 13 13 12 12 12 12 11 11 11 11 11 11 11 11 11 11 11 11 10 10 10 10 10 10 10
15 15 14 14 14 14 14 14 14 14 14 13 13 13 13 13 13 13 12 12 12 12 12 12 11 11 11 11 11 10 10 10 11 10 10 10 10 10 10 10 10 10 10
14 14 14 14 14 14 14 14 14 14 13 13 13 13 13 13 13 13 12 12 12 12 12 12 11 11 11 11 10 10 10 10 10 10 10 10 10 10 10 10 10 10 10
14 14 14 14 14 14 14 14 14 14 13 13 13 13 13 13 13 13 12 12 12 12 12 11 11 11 11 10 10 10 10 10 10 10 10 10 10 10 10 9 9 9 9
14 14 14 14 14 14 14 14 13 13 13 13 13 13 13 13 13 13 12 12 12 12 11 11 11 11 10 10 10 10 10 10 10 10 10 10 10 10 10 9 9 9 9
14 14 14 14 14 14 14 13 13 13 13 13 13 13 13 13 12 12 12 12 12 12 11 11 11 11 11 10 10 10 10 9 9 9 9 9 9 9 10 9 9 9 9
14 13 13 13 14 13 13 13 13 13 13 13 12 12 12 12 12 12 12 12 11 11 11 11 11 11 11 11 10 10 10 10 9 9 9 9 9 9 9 9 9 9 9
13 13 13 13 13 13 13 13 13 13 12 12 12 12 12 12 12 12 12 11 11 11 11 11 11 11 11 10 10 10 10 9 9 9 9 9 9 9 9 9 9 9 8
13 13 13 13 12 13 13 13 12 12 12 12 12 12 12 12 12 12 11 11 11 11 11 10 10 10 10 10 10 10 9 9 9 9 9 8 8 8 9 9 9 8 8
12 12 12 12 12 12 12 12 12 12 12 12 12 11 11 11 11 11 11 11 11 11 10 10 10 10 10 10 10 9 9 9 9 8 9 8 8 8 8 8 8 8 8
Wind_Speed
3 4 4 5 5 5 4 4 5 7 7 8 9 9 8 9 10 11 11 14 13 13 13 13 12 11 11 11 11 12 12 12 12 11 11 11 10 9 9 10 10 10 10
5 4 4 4 5 5 5 5 6 5 5 6 7 8 7 8 9 10 10 12 14 14 14 14 13 12 11 11 11 11 12 12 12 12 11 11 11 10 10 10 10 10 10
7 5 3 3 4 5 6 6 6 5 4 5 5 6 7 7 8 9 10 9 11 13 14 13 13 12 12 11 11 12 12 12 12 12 12 12 11 10 9 9 9 9 9
8 6 3 3 5 6 5 3 3 4 4 4 4 4 5 6 7 8 8 8 9 10 12 13 13 12 12 11 11 11 11 11 12 12 12 12 11 10 9 8 8 9 10
8 6 3 3 6 4 3 3 4 4 4 3 4 4 4 4 5 7 7 8 9 10 10 11 12 12 12 11 10 10 10 11 11 11 12 12 11 11 10 10 10 11 11
7 6 3 4 5 3 4 4 4 3 2 2 4 5 3 3 4 5 5 7 8 9 9 9 9 10 11 11 10 9 10 10 11 11 11 12 11 11 12 12 13 13 13
6 5 3 3 4 3 3 3 3 3 2 2 3 3 2 3 4 3 4 4 6 7 8 9 8 8 8 9 9 8 9 9 10 10 11 11 11 12 12 13 13 13 13
4 4 3 2 3 3 3 3 2 2 1 1 1 1 1 2 3 3 3 3 4 6 6 8 8 8 8 8 8 8 8 9 9 9 10 11 11 11 12 12 12 12 11
3 3 3 3 3 2 2 1 1 2 0 1 1 1 1 1 0 2 3 3 4 4 4 6 8 8 8 9 9 9 8 8 9 10 10 11 11 11 12 12 12 12 11
2 2 3 2 3 2 2 1 1 1 1 1 1 1 1 2 2 1 1 2 3 3 3 4 6 7 8 9 9 9 9 8 8 9 10 10 10 11 11 11 11 11 10
2 2 3 2 2 2 2 1 1 1 0 0 0 1 2 2 1 2 1 1 2 2 2 3 4 6 7 8 8 8 8 8 8 8 8 8 8 9 10 10 10 10 9
2 2 3 2 2 2 2 2 1 1 0 0 0 1 1 1 1 1 1 1 1 1 1 2 3 4 6 7 7 8 8 8 8 8 7 7 7 8 8 8 9 9 9
2 3 2 2 2 2 1 2 2 2 1 1 1 1 0 0 0 1 2 1 1 0 1 1 2 3 5 7 8 8 8 8 8 8 7 7 7 7 7 7 7 7 8
3 3 3 2 2 2 2 2 1 1 1 2 1 1 1 0 1 1 2 2 1 1 1 1 1 3 5 6 7 7 7 6 6 6 7 7 7 6 7 6 6 6 7
2 3 3 3 2 2 2 2 1 1 1 1 1 2 1 1 1 1 1 2 2 1 0 1 1 1 4 6 6 5 6 6 5 5 5 5 5 5 6 6 6 6 6
2 3 3 3 3 3 3 2 1 1 1 1 1 1 1 1 1 1 1 0 1 2 1 1 1 2 3 5 5 5 6 6 5 4 4 4 4 5 5 5 5 5 5
2 3 4 4 4 4 4 4 4 3 2 2 2 2 2 1 1 1 1 1 1 2 2 1 1 2 3 3 5 5 6 6 5 4 3 3 4 4 4 4 4 4 4
3 2 2 3 3 3 4 4 4 4 3 3 3 3 3 2 2 1 1 1 1 1 3 3 2 2 2 3 4 4 4 4 5 4 4 3 3 3 3 4 3 3 3
3 3 2 2 2 2 3 3 4 4 4 4 4 4 4 4 3 2 2 2 2 2 2 3 2 2 1 2 3 2 3 3 3 4 5 4 4 4 4 3 3 2 2
2 2 3 3 3 3 3 3 3 4 4 4 3 3 3 4 4 4 3 3 2 2 3 3 2 2 2 2 3 2 1 0 1 3 4 4 4 5 4 4 4 3 3
2 2 2 2 2 2 1 1 2 2 2 3 3 2 3 4 4 3 2 2 2 2 2 3 3 2 2 2 3 2 2 1 1 3 2 3 5 5 5 5 5 5 5
1 2 2 2 1 1 2 2 1 1 2 2 3 3 4 5 4 4 3 3 3 3 3 3 2 3 4 3 3 3 2 2 1 2 1 2 4 3 6 7 7 7 7
2 2 2 2 2 2 2 2 1 1 2 3 3 3 2 3 5 3 3 3 2 3 4 4 4 4 4 4 4 3 3 3 3 3 2 2 2 3 6 8 10 9 9
2 3 2 3 2 2 3 3 2 2 3 3 3 3 4 4 4 4 3 3 3 3 4 4 4 4 3 3 4 4 4 2 1 1 3 2 2 2 4 7 10 11 10
3 2 2 3 3 3 4 4 3 2 2 3 2 2 4 5 6 6 4 3 3 3 4 5 4 4 4 5 5 3 2 2 1 2 2 2 2 2 2 3 8 11 11
3 3 3 3 4 4 5 5 5 2 3 2 2 2 3 4 5 7 5 5 4 3 3 2 2 3 4 6 7 5 4 4 2 2 3 2 2 1 2 2 5 8 9
Wind_Direction
71 81 77 71 75 74 66 63 67 63 54 57 64 69 73 74 76 78 71 67 66 69 73 74 73 73 75 79 78 78 78 76 73 70 70 73 75 82 84 87 88 90 89
82 74 70 61 62 67 71 69 68 67 61 61 57 58 63 71 77 83 81 73 67 67 68 68 69 70 76 80 79 77 79 79 76 75 74 75 74 74 77 81 83 86 90
88 82 77 70 68 66 71 70 68 72 74 69 60 56 53 58 69 73 74 77 77 70 70 67 65 66 70 78 80 79 80 82 80 77 74 72 71 71 73 77 84 90 94
86 79 68 69 73 69 70 69 69 65 64 65 58 52 50 45 53 70 72 73 77 77 73 69 65 64 66 72 78 81 83 85 82 77 72 70 69 72 73 72 87 96 96
86 83 63 74 81 74 64 67 64 75 73 75 79 66 53 38 36 54 62 66 75 86 84 76 67 62 62 66 74 80 83 84 83 78 74 72 70 70 73 74 89 99 95
83 85 69 67 76 63 58 65 66 67 80 81 84 81 77 68 51 42 49 61 64 73 79 83 76 68 62 61 66 74 78 80 81 80 78 76 73 73 74 76 85 88 90
81 84 68 57 67 68 71 76 76 72 73 92 88 76 55 71 83 54 44 51 61 68 76 82 78 73 69 62 59 69 75 77 81 81 81 81 78 76 77 77 81 85 85
81 95 94 93 82 75 70 74 81 77 68 101 123 118 104 31 37 68 63 46 46 50 59 71 76 73 71 69 62 68 73 77 80 84 86 84 82 79 78 78 79 81 82
95 90 101 102 107 103 92 84 93 81 23 338 41 78 117 134 100 44 72 69 54 40 45 62 68 67 70 74 68 70 74 80 83 83 87 86 82 80 80 78 78 78 79
115 110 111 115 115 114 120 153 110 99 72 334 358 15 53 109 132 119 30 71 76 64 47 51 63 64 74 83 77 73 72 78 84 88 89 87 85 83 78 79 77 76 76
144 145 139 130 122 133 151 136 101 86 119 226 49 25 18 13 24 116 130 91 51 51 55 61 72 75 83 87 85 77 75 82 83 84 86 89 88 86 83 81 79 77 78
165 173 163 155 145 154 163 155 150 156 260 10 92 98 105 64 345 84 111 123 111 66 55 63 75 83 91 90 88 84 85 88 84 81 83 90 92 89 87 85 84 80 75
170 186 157 158 155 148 146 134 160 181 174 175 147 160 139 128 100 103 112 124 107 123 64 61 81 97 90 93 97 93 92 89 85 80 78 81 85 86 83 81 83 82 78
169 166 159 156 162 164 169 154 171 182 177 182 162 143 136 95 75 107 131 127 102 65 62 86 69 98 102 106 107 105 104 97 94 88 81 78 79 80 79 77 76 76 74
180 166 166 169 170 163 155 148 161 190 157 152 147 142 143 153 119 120 112 135 140 139 234 153 95 106 118 121 123 116 121 116 109 99 89 83 83 81 79 79 77 76 74
184 171 177 173 171 173 168 178 169 178 136 135 130 114 134 158 126 87 84 64 95 138 152 131 135 138 134 127 125 119 128 122 122 119 107 98 98 96 97 94 90 86 83
174 181 186 183 185 185 186 179 178 185 182 186 174 167 193 176 149 135 94 78 60 99 116 100 97 124 127 125 130 133 138 137 143 148 139 124 121 114 113 112 105 97 92
180 174 191 192 204 200 197 186 183 185 195 197 192 177 187 168 156 152 138 144 151 138 136 142 138 133 138 149 145 155 152 156 153 165 164 154 153 150 141 132 124 114 107
173 171 179 186 222 217 192 188 190 195 199 199 194 185 184 164 179 179 175 171 173 146 128 143 158 158 161 157 136 149 156 154 165 168 169 171 174 173 170 165 157 159 142
183 178 177 193 214 211 197 198 209 204 197 195 197 184 171 168 180 182 186 184 168 155 145 148 159 165 169 168 141 152 173 208 195 174 164 173 185 190 195 194 194 193 185
193 177 179 202 202 191 194 188 213 211 213 199 185 164 143 133 124 139 159 158 147 150 159 165 172 167 177 171 181 182 182 198 245 180 167 189 192 191 192 203 209 210 210
181 202 197 180 187 175 116 114 51 273 223 200 195 176 158 148 142 143 146 135 143 167 176 174 183 188 197 194 186 183 174 169 241 220 173 235 191 191 191 197 207 212 217
197 219 209 177 182 180 142 136 142 345 268 227 203 187 180 168 155 156 169 182 197 211 202 190 194 202 195 193 179 186 195 193 214 213 155 239 226 214 205 208 208 210 215
201 219 207 194 188 193 174 175 187 226 262 244 210 187 175 159 165 160 173 194 207 221 215 201 195 201 193 180 181 188 193 192 202 205 165 217 239 231 215 208 211 212 214
203 212 216 198 185 193 189 189 182 212 241 253 231 201 184 173 182 173 171 190 208 233 211 191 190 186 184 181 171 151 166 166 227 240 190 184 231 244 233 212 214 214 216
205 207 219 207 193 193 199 197 194 205 220 236 236 221 200 188 181 175 183 191 207 220 198 185 194 209 203 195 190 183 181 188 201 226 210 177 208 175 269 240 204 208 214
Height
1546 1546 1546 1546 1547 1547 1547 1547 1548 1548 1548 1548 1548 1548 1548 1547 1547 1547 1547 1547 1546 1546 1546 1546 1545 1546 1546 1545 1545 1545 1545 1545 1545 1545 1545 1545 1545 1545 1545 1545 1546 1546 1547
1547 1547 1547 1547 1548 1548 1548 1548 1549 1549 1549 1549 1549 1549 1549 1549 1549 1548 1548 1548 1548 1547 1547 1547 1547 1547 1547 1547 1546 1546 1546 1546 1546 1545 1545 1545 1545 1545 1545 1545 1546 1547 1547
1548 1548 1548 1548 1549 1549 1549 1549 1549 1550 1550 1550 1550 1550 1550 1550 1550 1550 1550 1549 1549 1549 1549 1548 1548 1548 1548 1548 1548 1547 1547 1547 1547 1546 1546 1546 1546 1546 1545 1545 1546 1547 1548
1549 1549 1549 1549 1549 1549 1550 1550 1551 1551 1551 1551 1551 1551 1551 1551 1551 1551 1551 1551 1551 1550 1550 1550 1549 1549 1549 1549 1549 1548 1548 1548 1548 1547 1547 1547 1546 1546 1544 1543 1543 1545 1547
1549 1549 1550 1550 1550 1550 1551 1551 1551 1551 1551 1552 1552 1552 1552 1552 1552 1553 1553 1553 1552 1552 1551 1551 1551 1550 1550 1550 1550 1549 1549 1549 1549 1548 1548 1547 1547 1546 1544 1540 1539 1544 1547
1550 1550 1551 1551 1551 1551 1551 1552 1552 1552 1552 1553 1553 1553 1553 1553 1553 1553 1554 1554 1553 1553 1553 1552 1552 1551 1551 1551 1551 1550 1550 1550 1550 1549 1549 1548 1548 1547 1546 1543 1542 1545 1547
1551 1551 1551 1551 1551 1551 1552 1552 1552 1553 1553 1553 1554 1554 1555 1555 1555 1554 1555 1555 1554 1554 1554 1553 1552 1552 1552 1551 1551 1551 1551 1551 1551 1550 1550 1549 1549 1548 1548 1547 1546 1547 1549
1551 1551 1551 1552 1552 1552 1552 1553 1553 1553 1554 1554 1555 1555 1555 1557 1556 1556 1555 1555 1555 1555 1554 1554 1553 1552 1552 1551 1551 1551 1551 1551 1551 1551 1551 1550 1550 1549 1549 1549 1549 1549 1550
1551 1551 1551 1552 1552 1552 1552 1553 1554 1554 1554 1555 1555 1556 1556 1556 1556 1557 1556 1556 1556 1555 1555 1555 1554 1553 1552 1552 1552 1552 1552 1552 1552 1552 1551 1551 1551 1551 1550 1550 1550 1551 1551
1550 1551 1551 1552 1552 1552 1552 1553 1554 1554 1554 1554 1555 1555 1556 1556 1556 1557 1558 1557 1556 1556 1555 1555 1554 1553 1553 1552 1552 1552 1552 1552 1552 1552 1552 1552 1552 1552 1552 1551 1551 1552 1552
1549 1550 1551 1551 1552 1552 1552 1553 1553 1554 1554 1554 1555 1555 1555 1556 1556 1556 1557 1557 1557 1556 1556 1555 1554 1554 1553 1553 1552 1553 1553 1553 1552 1553 1553 1553 1553 1553 1552 1552 1552 1552 1553
1548 1549 1550 1551 1551 1552 1552 1552 1553 1553 1554 1554 1554 1554 1555 1555 1555 1556 1556 1556 1556 1556 1556 1555 1554 1554 1553 1553 1553 1553 1553 1553 1553 1553 1553 1553 1553 1553 1553 1553 1553 1553 1553
1547 1548 1549 1550 1550 1551 1552 1552 1552 1553 1553 1553 1553 1554 1554 1555 1555 1555 1555 1555 1556 1556 1556 1555 1555 1554 1554 1553 1553 1553 1553 1553 1553 1553 1553 1554 1554 1554 1554 1554 1554 1554 1554
1546 1547 1548 1549 1549 1550 1551 1551 1551 1552 1552 1552 1553 1553 1553 1554 1554 1554 1555 1555 1555 1556 1556 1555 1555 1554 1554 1554 1553 1553 1553 1553 1553 1553 1553 1553 1554 1554 1554 1554 1554 1554 1554
1545 1545 1546 1547 1548 1548 1549 1550 1550 1551 1551 1551 1551 1552 1552 1552 1553 1553 1554 1554 1555 1554 1555 1555 1555 1554 1554 1554 1554 1553 1553 1553 1554 1554 1553 1553 1554 1554 1554 1554 1554 1553 1553
1543 1544 1545 1545 1546 1547 1547 1548 1548 1549 1550 1550 1550 1550 1551 1551 1551 1552 1553 1553 1554 1554 1554 1554 1554 1554 1554 1554 1553 1553 1553 1553 1553 1553 1553 1553 1553 1554 1554 1553 1553 1553 1553
1541 1542 1543 1544 1544 1545 1546 1546 1547 1547 1548 1548 1549 1549 1549 1550 1550 1551 1551 1552 1552 1553 1552 1553 1553 1553 1553 1553 1553 1553 1553 1553 1553 1553 1553 1553 1553 1553 1553 1553 1553 1553 1552
1539 1540 1541 1542 1542 1543 1544 1545 1545 1546 1546 1547 1547 1548 1548 1548 1549 1549 1549 1550 1550 1551 1551 1551 1552 1552 1553 1553 1553 1552 1552 1552 1552 1552 1552 1552 1552 1552 1552 1552 1552 1552 1551
1536 1537 1538 1539 1540 1541 1542 1542 1543 1544 1545 1545 1546 1546 1546 1547 1547 1547 1548 1548 1549 1549 1550 1550 1551 1551 1551 1551 1551 1552 1552 1551 1551 1551 1551 1551 1551 1551 1551 1551 1550 1550 1550
1534 1535 1536 1537 1538 1539 1539 1540 1541 1542 1542 1543 1544 1544 1544 1545 1545 1546 1546 1547 1547 1548 1548 1549 1549 1550 1550 1550 1550 1550 1550 1550 1550 1550 1550 1550 1550 1550 1549 1549 1549 1549 1548
1532 1533 1533 1534 1535 1536 1536 1537 1538 1539 1540 1540 1541 1542 1542 1543 1543 1544 1544 1545 1545 1546 1546 1547 1547 1547 1548 1548 1548 1548 1548 1548 1548 1548 1548 1548 1548 1547 1547 1547 1547 1547 1546
1529 1530 1530 1531 1532 1533 1533 1534 1535 1536 1537 1538 1538 1539 1539 1540 1540 1541 1542 1542 1543 1543 1543 1544 1544 1545 1545 1545 1546 1546 1546 1546 1545 1547 1546 1546 1545 1545 1545 1545 1545 1545 1544
1526 1526 1527 1528 1528 1529 1530 1531 1532 1533 1534 1535 1535 1536 1536 1537 1537 1538 1539 1540 1540 1541 1541 1542 1541 1542 1542 1542 1543 1543 1543 1543 1543 1544 1544 1543 1543 1542 1542 1542 1542 1542 1541
1522 1523 1524 1524 1525 1526 1526 1527 1528 1529 1530 1531 1532 1532 1533 1533 1534 1535 1535 1536 1537 1537 1538 1538 1539 1539 1540 1540 1540 1541 1541 1541 1541 1541 1542 1541 1540 1540 1540 1540 1539 1539 1539
1518 1519 1520 1521 1521 1522 1523 1523 1524 1525 1526 1527 1528 1529 1529 1530 1530 1531 1531 1532 1533 1534 1535 1535 1536 1536 1537 1537 1537 1538 1538 1538 1538 1538 1538 1538 1537 1537 1537 1536 1536 1536 1535
1514 1516 1516 1517 1518 1518 1519 1520 1520 1521 1521 1522 1523 1524 1525 1526 1526 1527 1527 1528 1528 1529 1530 1531 1532 1533 1533 1534 1534 1534 1535 1535 1534 1534 1534 1534 1534 1534 1533 1533 1533 1533 1532